[[{"header":{"parameterUnit":"m.s-1","parameterCategory":1,"la1":30.2991,"la2":30.254,"lo1":-89.0895,"lo2":-89.0444,"dy":0.0017,"dx":0.0017,"nx":28,"ny":28,"refTime":"2023-09-23T21:00:00:Z","depth":0,"parameterNumber":2,"parameterNumberName":"U-component_of_WINDS"},"data":[0,0,0,0,0,0,0,0,0,0,0,0,0,0,0,0,0,0,0,0,0,0,0,0,0,0,0,0,0,0,0,0,0,0,0,0,0,0,0,0,0,0,0,0,0,0,0,0,0,0,0,0,0,0,0,0,0,0,2.5668,2.5669,0,2.5769,2.577,2.5772,2.5793,2.5792,2.5791,2.5791,2.5893,2.5897,2.59,0,0,0,0,0,0,0,0,0,0,0,0,0,2.5491,2.5494,2.5668,2.5669,2.567,2.5769,2.577,2.5772,2.5793,2.5792,2.5791,2.579,2.5892,2.5896,2.59,0,0,0,0,0,0,0,0,0,0,0,0,0,2.5577,2.5495,2.5668,2.5693,2.5696,2.5769,2.5771,2.5772,2.5793,2.5792,2.5791,2.579,2.5891,2.5896,2.5901,2.5955,0,0,2.5917,2.5919,0,0,0,0,0,0,0,0,2.5572,2.5584,2.5688,2.5691,2.5695,2.5767,2.5746,2.5834,2.5794,2.5756,2.5791,2.5789,2.5852,2.586,2.5882,2.596,2.5964,2.5917,2.592,2.5922,2.5924,0,0,0,0,0,0,0,2.5566,2.558,2.5708,2.5689,2.5694,2.5699,2.571,2.5762,2.5809,2.5759,2.5761,2.5773,2.5854,2.5877,2.5884,2.5966,2.5917,2.5921,2.5925,2.5927,2.6093,2.6094,0,0,0,0,0,0,2.5556,2.5574,2.5705,2.5711,2.563,2.5703,2.5715,2.5745,2.5809,2.5817,2.5774,2.5774,2.5869,2.5878,2.5888,2.5955,2.5922,2.5927,2.593,2.6091,2.6093,2.6094,0,0,0,0,0,0,2.5552,2.5568,2.5701,2.5643,2.5661,2.5707,2.5741,2.5748,2.5771,2.582,2.5828,2.5789,2.5868,2.5881,2.5938,2.5959,2.5929,2.5934,2.609,2.6092,2.6094,2.609,0,0,0,0,0,0,2.5547,2.5566,2.5588,2.5644,2.5664,2.5749,2.5742,2.5751,2.578,2.578,2.5836,2.5844,2.5868,2.593,2.5943,2.5966,2.5938,2.6088,2.6091,2.6093,2.6089,2.6092,2.6094,0,0,0,0,0,2.5541,2.5582,2.5588,2.5604,2.5691,2.5751,2.5762,2.5789,2.5781,2.5803,2.5834,2.5842,2.5955,2.5936,2.5951,2.5975,2.6087,2.609,2.6093,2.6087,2.6091,2.6094,0,0,0,0,0,0,2.5527,2.559,2.5598,2.5659,2.5699,2.5754,2.5782,2.5793,2.5836,2.5834,2.5866,2.5879,2.5934,2.596,2.5938,2.603,2.602,2.6026,2.6011,2.6015,2.6018,2.601,2.5942,0,0,0,0,0,2.5531,2.5574,2.5627,2.5676,2.5696,2.5736,2.5762,2.578,2.5823,2.584,2.5876,2.5916,2.5961,2.599,2.6033,2.6093,2.6105,2.6116,2.6119,2.6122,2.6126,2.6159,2.6164,2.6104,2.6104,2.6104,0,0,2.554,2.558,2.5605,2.5674,2.5708,2.5751,2.575,2.5796,2.5828,2.5847,2.5903,2.5931,2.5978,2.6037,2.6064,2.606,2.6145,2.6125,2.6127,2.613,2.6162,2.6168,2.6173,2.6106,2.6106,2.6106,0,0,2.5578,2.5613,2.5657,2.5691,2.5742,2.5768,2.5778,2.5832,2.5851,2.5908,2.5923,2.5961,2.6038,2.6071,2.6098,2.6148,2.6157,2.6162,2.6177,2.6208,2.6213,2.6217,2.6234,2.624,2.6166,2.6166,2.6166,0,2.5582,2.5649,2.5678,2.5724,2.5754,2.5773,2.5817,2.5849,2.5911,2.593,2.5925,2.6021,2.6055,2.6121,2.6133,2.6155,2.6167,2.6155,2.621,2.6214,2.6219,2.6235,2.6242,2.6166,2.6166,2.6166,2.6166,0,2.5652,2.5698,2.5727,2.5787,2.582,2.5865,2.59,2.593,2.5945,2.5971,2.6029,2.607,2.6122,2.6139,2.6154,2.6207,2.6203,2.6203,2.6194,2.6224,2.624,2.6247,2.6167,2.6167,2.6167,2.6167,0,0,2.5683,2.5759,2.577,2.5797,2.5854,2.589,2.5935,2.5987,2.6011,2.6053,2.6092,2.6156,2.6157,2.6187,2.6206,2.6233,2.627,2.6231,2.6232,2.6236,2.6329,2.6328,2.6335,2.6276,2.6277,2.6278,2.6325,0,2.5728,2.581,2.5838,2.5906,2.5948,2.5967,2.6007,2.6046,2.6071,2.6111,2.6139,2.6184,2.6182,2.62,2.6228,2.6259,2.6289,2.6256,2.6311,2.6312,2.6297,2.6343,2.6342,2.6384,2.6332,2.6333,2.6334,0,2.5791,2.5834,2.5906,2.5958,2.5977,2.6012,2.6061,2.6099,2.6143,2.616,2.6194,2.621,2.6258,2.6246,2.6311,2.6288,2.6312,2.6331,2.6333,2.6338,2.6324,2.6349,2.6399,2.6404,2.6344,2.6343,2.6342,0,2.5806,2.5882,2.5935,2.5958,2.602,2.6044,2.6071,2.6114,2.6143,2.6186,2.6205,2.6252,2.6278,2.6314,2.6343,2.6332,2.6405,2.6396,2.6419,2.6419,2.6433,2.6432,2.6486,2.645,2.645,2.645,2.645,0,2.5852,2.5895,2.5943,2.5975,2.6024,2.6055,2.6102,2.613,2.6168,2.6206,2.6225,2.626,2.6296,2.6336,2.6358,2.6408,2.642,2.6434,2.6439,2.6432,2.643,2.6447,2.6445,2.6452,2.6451,2.6451,2.6451,0,2.5876,2.591,2.5969,2.6023,2.6038,2.6071,2.6117,2.6149,2.6175,2.6223,2.6235,2.6277,2.6324,2.6357,2.6417,2.6432,2.6486,2.6491,2.6471,2.6473,2.6495,2.6492,2.6562,2.6572,2.653,2.653,2.653,0,2.5903,2.5937,2.5995,2.6021,2.6048,2.6091,2.6121,2.6153,2.6183,2.6236,2.6261,2.631,2.635,2.6425,2.646,2.6506,2.6512,2.6533,2.6519,2.651,2.6511,2.6508,2.6511,2.6535,2.6535,2.6535,2.6536,0,2.5947,2.5962,2.6004,2.6053,2.6088,2.6127,2.6167,2.6187,2.6226,2.6259,2.6307,2.6339,2.64,2.6448,2.6497,2.6524,2.6536,2.654,2.6548,2.654,2.6526,2.6533,2.6476,2.6538,2.6538,2.6538,2.6538,2.6537,2.5973,2.6003,2.6049,2.6095,2.6129,2.6165,2.6197,2.6228,2.627,2.6323,2.6339,2.6389,2.6432,2.65,2.6527,2.6567,2.6565,2.6576,2.6579,2.6581,2.658,2.6521,2.6576,2.6576,2.6576,2.6576,2.6576,0,2.6017,2.6047,2.609,2.6144,2.6181,2.619,2.6234,2.6263,2.6307,2.6347,2.6386,2.6442,2.6488,2.6527,2.6574,2.6598,2.6605,2.661,2.6608,2.6613,2.658,2.6568,2.6604,2.6604,2.6603,2.6603,2.6603,2.6603,2.6044,2.6096,2.6116,2.6185,2.6215,2.6265,2.6289,2.6322,2.6354,2.6415,2.6454,2.6479,2.6518,2.6568,2.6611,2.6621,2.6637,2.664,2.6652,2.6619,2.6616,2.6613,2.6602,2.6644,2.6644,2.6682,2.6682,2.6683]},{"header":{"parameterUnit":"m.s-1","parameterCategory":1,"la1":30.2991,"la2":30.254,"lo1":-89.0895,"lo2":-89.0444,"dy":0.0017,"dx":0.0017,"nx":28,"ny":28,"refTime":"2023-09-23T21:00:00:Z","depth":0,"parameterNumber":3,"parameterNumberName":"V-component_of_WINDS"},"data":[0,0,0,0,0,0,0,0,0,0,0,0,0,0,0,0,0,0,0,0,0,0,0,0,0,0,0,0,0,0,0,0,0,0,0,0,0,0,0,0,0,0,0,0,0,0,0,0,0,0,0,0,0,0,0,0,0,0,3.2431,3.2431,0,3.2444,3.2444,3.2444,3.2466,3.2467,3.2467,3.2467,3.2479,3.2479,3.2479,0,0,0,0,0,0,0,0,0,0,0,0,0,3.2424,3.2424,3.2431,3.2431,3.2432,3.2444,3.2444,3.2445,3.2466,3.2467,3.2467,3.2468,3.2479,3.2479,3.2479,0,0,0,0,0,0,0,0,0,0,0,0,0,3.2431,3.2424,3.2431,3.2444,3.2445,3.2444,3.2444,3.2445,3.2466,3.2467,3.2467,3.2468,3.2479,3.2479,3.2479,3.2466,0,0,3.2479,3.2479,0,0,0,0,0,0,0,0,3.2431,3.2431,3.2442,3.2443,3.2444,3.2454,3.2446,3.2452,3.2466,3.2458,3.2467,3.2468,3.247,3.2471,3.2472,3.2467,3.2468,3.2479,3.2479,3.2479,3.2479,0,0,0,0,0,0,0,3.243,3.2431,3.2436,3.2442,3.2444,3.2449,3.245,3.2447,3.2461,3.2459,3.246,3.2462,3.2471,3.2472,3.2473,3.2468,3.2479,3.2479,3.2479,3.2479,3.2452,3.2452,0,0,0,0,0,0,3.2428,3.243,3.2436,3.2437,3.2439,3.2448,3.245,3.245,3.2461,3.2463,3.2461,3.2463,3.2472,3.2473,3.2473,3.2458,3.2479,3.2479,3.2479,3.2453,3.2452,3.2451,0,0,0,0,0,0,3.2428,3.2428,3.2435,3.2434,3.2435,3.2448,3.2448,3.245,3.2451,3.2463,3.2465,3.246,3.2472,3.2473,3.2468,3.2459,3.2479,3.2479,3.2454,3.2453,3.2452,3.2429,0,0,0,0,0,0,3.2427,3.2428,3.2424,3.2434,3.2435,3.243,3.2447,3.245,3.2451,3.2453,3.2462,3.2464,3.2473,3.2468,3.2468,3.2459,3.2479,3.2454,3.2453,3.2452,3.243,3.2427,3.2425,0,0,0,0,0,3.2427,3.2417,3.2423,3.2424,3.243,3.243,3.2431,3.2442,3.2451,3.2446,3.2453,3.2464,3.246,3.2467,3.2467,3.2458,3.2455,3.2454,3.2452,3.2432,3.2428,3.2425,0,0,0,0,0,0,3.2405,3.2418,3.2426,3.2418,3.2423,3.2433,3.2428,3.2437,3.2439,3.2441,3.2455,3.2456,3.2449,3.2453,3.2461,3.2446,3.2459,3.2458,3.2444,3.244,3.2437,3.2436,3.2478,0,0,0,0,0,3.2399,3.2398,3.241,3.2402,3.2404,3.2415,3.2416,3.2424,3.2429,3.2431,3.2438,3.2442,3.2442,3.2441,3.2442,3.2432,3.2433,3.2426,3.2423,3.242,3.2418,3.2412,3.2409,3.2447,3.2447,3.2447,0,0,3.2387,3.2394,3.2393,3.2398,3.2402,3.24,3.2417,3.2414,3.2413,3.243,3.2426,3.2431,3.2436,3.2428,3.2425,3.2432,3.2408,3.2418,3.2416,3.2416,3.2411,3.2407,3.2404,3.2446,3.2446,3.2446,0,0,3.2364,3.237,3.2363,3.2368,3.2374,3.2382,3.2381,3.239,3.2394,3.239,3.2403,3.2401,3.2401,3.2404,3.2406,3.2384,3.2393,3.2384,3.2368,3.2362,3.2359,3.2356,3.2348,3.2344,3.2382,3.2382,3.2382,0,3.2348,3.2346,3.2359,3.2356,3.2357,3.2373,3.2367,3.237,3.2376,3.2377,3.2384,3.2384,3.2389,3.2382,3.2376,3.2377,3.2375,3.2382,3.2358,3.2356,3.2354,3.2346,3.2342,3.2381,3.2381,3.2381,3.2381,0,3.2326,3.2324,3.2318,3.2324,3.2325,3.232,3.2332,3.2331,3.234,3.2346,3.2342,3.2348,3.235,3.2349,3.2357,3.2343,3.2346,3.2356,3.2369,3.2348,3.2341,3.2338,3.2379,3.2379,3.238,3.238,0,0,3.2288,3.2302,3.2299,3.2302,3.231,3.2309,3.2305,3.2307,3.2306,3.231,3.2306,3.2305,3.2314,3.2316,3.2325,3.232,3.2301,3.233,3.233,3.2323,3.2285,3.2277,3.2273,3.2308,3.2307,3.2307,3.2284,0,3.2266,3.226,3.2271,3.2262,3.226,3.2276,3.2272,3.2277,3.2283,3.2282,3.2289,3.2288,3.23,3.2301,3.2297,3.2304,3.2293,3.2306,3.2303,3.2303,3.2301,3.2269,3.2261,3.2239,3.2281,3.2281,3.228,0,3.224,3.2242,3.2233,3.2242,3.2242,3.2238,3.2241,3.224,3.2245,3.225,3.2252,3.2262,3.2258,3.2271,3.2265,3.2274,3.2274,3.2277,3.2276,3.2276,3.229,3.2267,3.2233,3.2229,3.2276,3.2276,3.2277,0,3.2212,3.2214,3.2208,3.221,3.2221,3.2217,3.2222,3.2228,3.2228,3.2231,3.2231,3.2233,3.2233,3.2234,3.2244,3.2253,3.2237,3.2251,3.224,3.224,3.2235,3.2235,3.2199,3.2236,3.2236,3.2237,3.2237,0,3.2186,3.2179,3.2196,3.2192,3.2185,3.2199,3.2191,3.2197,3.2202,3.2199,3.2213,3.221,3.2224,3.2223,3.2231,3.2224,3.2224,3.2228,3.223,3.2226,3.2225,3.2225,3.2227,3.2236,3.2236,3.2236,3.2236,0,3.2154,3.2165,3.216,3.217,3.2173,3.2167,3.2175,3.2172,3.218,3.2176,3.2176,3.2188,3.2187,3.2197,3.2198,3.2203,3.2193,3.2198,3.2191,3.2192,3.218,3.2181,3.2143,3.2138,3.2179,3.2178,3.2178,0,3.2136,3.2131,3.2141,3.2141,3.2144,3.2143,3.2144,3.2157,3.2157,3.2163,3.2158,3.2159,3.216,3.2157,3.2165,3.2166,3.217,3.2157,3.2171,3.2167,3.2169,3.2169,3.2168,3.2154,3.2153,3.2153,3.2153,0,3.2103,3.2109,3.2109,3.2112,3.2112,3.2114,3.2118,3.2116,3.213,3.2129,3.2129,3.2129,3.2131,3.213,3.2132,3.2136,3.2146,3.2148,3.2146,3.2141,3.2137,3.2139,3.2182,3.2149,3.2149,3.215,3.215,3.215,3.2077,3.2073,3.208,3.208,3.2084,3.2086,3.2084,3.2091,3.2091,3.2093,3.2101,3.2098,3.2103,3.2108,3.211,3.2109,3.2115,3.2111,3.211,3.2109,3.2107,3.2138,3.2109,3.2109,3.2109,3.2109,3.211,0,3.2044,3.2049,3.2049,3.2053,3.2053,3.2063,3.2067,3.2066,3.2064,3.2069,3.2069,3.2068,3.2068,3.2076,3.2077,3.2074,3.2078,3.2073,3.2073,3.2074,3.2101,3.2103,3.207,3.207,3.207,3.207,3.207,3.207,3.2027,3.2021,3.2027,3.2023,3.2028,3.2026,3.2028,3.203,3.2033,3.2032,3.2032,3.2037,3.2043,3.2044,3.2044,3.2047,3.2046,3.2039,3.2043,3.2068,3.2072,3.2076,3.2077,3.2039,3.2039,3.2016,3.2015,3.2015]}]]